JAL919 RJTT-ROAH

Flight info

Callsign JAL919
Flight time 2h 12m
Altitude 34000
Route LAXAS Y56 TOHME Y54 KOHWA Y12 AYANO Y128 LAXEL Y52 TONAR Y525 IHEYA
Aircraft B77W/H-SDE1E2E3FGHIJ2J3J4J5M1RWXY/LB1D1

Departure

Time 2026-05-03 22:17
Airport Tokyo Haneda International Airport (RJTT)

Arrival

Time 2026-05-04 00:29
Airport Naha International Airport (ROAH)
Time Latitude Longitude Altitude Speed Heading
2026-05-03 21:58 35.54960 139.78226 34 ft 0 kts 61°
2026-05-03 22:07 35.54956 139.78218 34 ft 2 kts 61°
2026-05-03 22:07 35.54949 139.78201 34 ft 2 kts 61°
2026-05-03 22:07 35.54942 139.78186 34 ft 2 kts 61°
2026-05-03 22:08 35.54934 139.78169 34 ft 2 kts 61°
2026-05-03 22:08 35.54927 139.78154 34 ft 2 kts 61°
2026-05-03 22:08 35.54922 139.78143 34 ft 2 kts 60°
2026-05-03 22:08 35.54914 139.78128 34 ft 2 kts 45°
2026-05-03 22:09 35.54902 139.78117 34 ft 2 kts 31°
2026-05-03 22:09 35.54889 139.78108 34 ft 2 kts 18°
2026-05-03 22:09 35.54874 139.78105 34 ft 2 kts
2026-05-03 22:10 35.54845 139.78108 34 ft 2 kts 339°
2026-05-03 22:10 35.54836 139.78113 34 ft 1 kts 330°
2026-05-03 22:10 35.54834 139.78114 34 ft 0 kts 330°
2026-05-03 22:13 35.54840 139.78111 34 ft 5 kts 330°
2026-05-03 22:13 35.54911 139.78052 34 ft 13 kts 297°
2026-05-03 22:13 35.54915 139.77966 34 ft 8 kts 292°
2026-05-03 22:14 35.54981 139.77887 34 ft 18 kts 328°
2026-05-03 22:14 35.55121 139.77786 34 ft 25 kts 329°
2026-05-03 22:14 35.55265 139.77683 34 ft 22 kts 329°
2026-05-03 22:14 35.55400 139.77583 34 ft 21 kts 329°
2026-05-03 22:15 35.55529 139.77496 34 ft 20 kts 330°
2026-05-03 22:15 35.55648 139.77411 34 ft 19 kts 329°
2026-05-03 22:15 35.55749 139.77318 34 ft 14 kts 284°
2026-05-03 22:15 35.55707 139.77228 34 ft 11 kts 222°
2026-05-03 22:16 35.55644 139.77181 34 ft 11 kts 183°
2026-05-03 22:16 35.55478 139.77281 34 ft 55 kts 153°
2026-05-03 22:16 35.54944 139.77653 35 ft 120 kts 151°
2026-05-03 22:16 35.54089 139.78293 236 ft 152 kts 159°
2026-05-03 22:17 35.53145 139.78929 800 ft 161 kts 160°
2026-05-03 22:17 35.52162 139.79614 1477 ft 167 kts 160°
2026-05-03 22:17 35.51085 139.80379 1709 ft 191 kts 160°
2026-05-03 22:17 35.49871 139.81220 2045 ft 210 kts 160°
2026-05-03 22:18 35.48515 139.82147 2391 ft 232 kts 160°
2026-05-03 22:18 35.47057 139.83173 2878 ft 248 kts 159°
2026-05-03 22:18 35.45589 139.84239 3746 ft 247 kts 161°
2026-05-03 22:18 35.44036 139.85014 4294 ft 242 kts 180°
2026-05-03 22:19 35.42373 139.84865 4909 ft 233 kts 206°
2026-05-03 22:19 35.41019 139.83936 5801 ft 223 kts 219°
2026-05-03 22:19 35.39795 139.82819 6586 ft 223 kts 221°
2026-05-03 22:19 35.38553 139.81633 7294 ft 226 kts 222°
2026-05-03 22:20 35.37320 139.80447 7994 ft 228 kts 222°
2026-05-03 22:20 35.36080 139.79256 8711 ft 230 kts 222°
2026-05-03 22:20 35.34805 139.78030 9339 ft 234 kts 222°
2026-05-03 22:20 35.33533 139.76810 10056 ft 235 kts 221°
2026-05-03 22:21 35.32217 139.75543 10554 ft 245 kts 221°
2026-05-03 22:21 35.30835 139.74211 10852 ft 263 kts 223°
2026-05-03 22:21 35.29376 139.72682 11132 ft 283 kts 224°
2026-05-03 22:21 35.27844 139.71059 11494 ft 299 kts 224°
2026-05-03 22:22 35.26228 139.69362 11868 ft 316 kts 224°
2026-05-03 22:22 35.24517 139.67574 12209 ft 333 kts 224°
2026-05-03 22:22 35.22712 139.65689 12830 ft 341 kts 224°
2026-05-03 22:22 35.20910 139.63814 13698 ft 343 kts 224°
2026-05-03 22:23 35.19083 139.61909 14540 ft 346 kts 224°
2026-05-03 22:23 35.17252 139.60002 15361 ft 350 kts 224°
2026-05-03 22:23 35.15397 139.58070 16135 ft 356 kts 224°
2026-05-03 22:23 35.13488 139.56084 16929 ft 360 kts 224°
2026-05-03 22:24 35.11591 139.54105 17739 ft 362 kts 225°
2026-05-03 22:24 35.09834 139.51907 18411 ft 366 kts 232°
2026-05-03 22:24 35.08324 139.49359 19087 ft 371 kts 239°
2026-05-03 22:24 35.07149 139.46574 19857 ft 374 kts 246°
2026-05-03 22:25 35.06319 139.43579 20622 ft 377 kts 253°
2026-05-03 22:25 35.05770 139.40419 21317 ft 382 kts 256°
2026-05-03 22:25 35.05262 139.37239 21921 ft 387 kts 256°
2026-05-03 22:25 35.04734 139.33981 22587 ft 391 kts 255°
2026-05-03 22:26 35.04207 139.30759 23362 ft 391 kts 255°
2026-05-03 22:26 35.03672 139.27515 24046 ft 394 kts 255°
2026-05-03 22:26 35.03122 139.24206 24656 ft 399 kts 255°
2026-05-03 22:26 35.02570 139.20895 25273 ft 403 kts 255°
2026-05-03 22:27 35.02009 139.17545 25895 ft 407 kts 255°
2026-05-03 22:27 35.01436 139.14131 26537 ft 411 kts 255°
2026-05-03 22:27 35.00863 139.10733 27112 ft 415 kts 254°
2026-05-03 22:27 35.00274 139.07240 27686 ft 419 kts 255°
2026-05-03 22:28 34.99686 139.03767 28299 ft 422 kts 254°
2026-05-03 22:28 34.99094 139.00269 28924 ft 425 kts 255°
2026-05-03 22:28 34.98688 138.96686 29609 ft 430 kts 261°
2026-05-03 22:28 34.98495 138.93083 30523 ft 426 kts 261°
2026-05-03 22:29 34.98314 138.89494 31551 ft 419 kts 261°
2026-05-03 22:29 34.98136 138.86000 32494 ft 413 kts 261°
2026-05-03 22:29 34.97957 138.82530 33201 ft 411 kts 261°
2026-05-03 22:29 34.97772 138.79018 33600 ft 412 kts 262°
2026-05-03 22:30 34.97590 138.75557 33598 ft 408 kts 262°
2026-05-03 22:30 34.97225 138.68695 33606 ft 405 kts 261°
2026-05-03 22:31 34.96851 138.61804 33602 ft 416 kts 261°
2026-05-03 22:31 34.96456 138.54614 33601 ft 429 kts 262°
2026-05-03 22:32 34.96055 138.47328 33606 ft 431 kts 262°
2026-05-03 22:32 34.95652 138.40077 33622 ft 430 kts 262°
2026-05-03 22:33 34.95245 138.32829 33656 ft 428 kts 261°
2026-05-03 22:33 34.94828 138.25525 33669 ft 430 kts 261°
2026-05-03 22:34 34.94413 138.18304 33665 ft 427 kts 261°
2026-05-03 22:34 34.93991 138.11050 33666 ft 426 kts 261°
2026-05-03 22:35 34.93569 138.03871 33672 ft 426 kts 261°
2026-05-03 22:35 34.93141 137.96664 33678 ft 426 kts 261°
2026-05-03 22:36 34.92708 137.89445 33683 ft 425 kts 261°
2026-05-03 22:36 34.92273 137.82263 33669 ft 426 kts 261°
2026-05-03 22:37 34.91833 137.75070 33678 ft 423 kts 261°
2026-05-03 22:37 34.91213 137.67932 33672 ft 419 kts 255°
2026-05-03 22:38 34.89468 137.61188 33680 ft 417 kts 248°
2026-05-03 22:38 34.87485 137.54584 33681 ft 416 kts 248°
2026-05-03 22:39 34.85489 137.47948 33684 ft 417 kts 248°
2026-05-03 22:39 34.83577 137.41342 33681 ft 416 kts 250°
2026-05-03 22:40 34.81679 137.34686 33682 ft 414 kts 249°
2026-05-03 22:40 34.79765 137.28003 33706 ft 416 kts 248°
2026-05-03 22:41 34.77862 137.21381 33698 ft 415 kts 248°
2026-05-03 22:41 34.75944 137.14725 33690 ft 415 kts 248°
2026-05-03 22:42 34.74046 137.08153 33689 ft 415 kts 248°
2026-05-03 22:42 34.72056 137.01527 33683 ft 413 kts 244°
2026-05-03 22:43 34.69086 136.95566 33684 ft 416 kts 233°
2026-05-03 22:43 34.64936 136.90677 33689 ft 419 kts 222°
2026-05-03 22:44 34.60258 136.86333 33704 ft 424 kts 221°
2026-05-03 22:44 34.55597 136.82025 33702 ft 419 kts 222°
2026-05-03 22:45 34.50921 136.77707 33703 ft 423 kts 222°
2026-05-03 22:45 34.46231 136.73383 33704 ft 423 kts 221°
2026-05-03 22:46 34.41545 136.69069 33702 ft 423 kts 222°
2026-05-03 22:46 34.36851 136.64752 33700 ft 423 kts 222°
2026-05-03 22:47 34.32154 136.60440 33700 ft 425 kts 222°
2026-05-03 22:47 34.27428 136.56059 33700 ft 426 kts 223°
2026-05-03 22:48 34.22760 136.51672 33699 ft 423 kts 223°
2026-05-03 22:48 34.18093 136.47296 33694 ft 426 kts 223°
2026-05-03 22:49 34.13402 136.42906 33693 ft 426 kts 223°
2026-05-03 22:49 34.08511 136.38686 33694 ft 433 kts 216°
2026-05-03 22:50 34.03203 136.35300 33695 ft 435 kts 214°
2026-05-03 22:50 33.97829 136.31914 33719 ft 435 kts 213°
2026-05-03 22:51 33.92437 136.28519 33720 ft 438 kts 214°
2026-05-03 22:51 33.87056 136.25134 33730 ft 435 kts 213°
2026-05-03 22:52 33.81692 136.21764 33729 ft 437 kts 213°
2026-05-03 22:52 33.76308 136.18387 33743 ft 435 kts 213°
2026-05-03 22:53 33.70918 136.15010 33734 ft 436 kts 213°
2026-05-03 22:53 33.65526 136.11636 33739 ft 437 kts 213°
2026-05-03 22:54 33.60121 136.08260 33744 ft 437 kts 214°
2026-05-03 22:54 33.54736 136.04898 33751 ft 440 kts 214°
2026-05-03 22:55 33.49293 136.01508 33747 ft 438 kts 214°
2026-05-03 22:55 33.43858 135.98126 33745 ft 438 kts 213°
2026-05-03 22:56 33.38459 135.94772 33745 ft 437 kts 213°
2026-05-03 22:56 33.33043 135.91412 33735 ft 436 kts 213°
2026-05-03 22:57 33.27622 135.88052 33738 ft 439 kts 213°
2026-05-03 22:57 33.22217 135.84709 33736 ft 439 kts 213°
2026-05-03 22:58 33.16765 135.81340 33737 ft 439 kts 212°
2026-05-03 22:58 33.11333 135.77989 33743 ft 439 kts 212°
2026-05-03 22:59 33.05853 135.74614 33748 ft 442 kts 212°
2026-05-03 22:59 33.00423 135.71274 33750 ft 441 kts 212°
2026-05-03 23:00 32.94937 135.67903 33748 ft 441 kts 213°
2026-05-03 23:00 32.89430 135.64525 33755 ft 444 kts 213°
2026-05-03 23:01 32.83917 135.61148 33769 ft 441 kts 212°
2026-05-03 23:01 32.78462 135.57811 33773 ft 443 kts 213°
2026-05-03 23:02 32.72955 135.54446 33774 ft 442 kts 212°
2026-05-03 23:02 32.67464 135.51097 33782 ft 446 kts 213°
2026-05-03 23:03 32.61937 135.47731 33779 ft 440 kts 212°
2026-05-03 23:03 32.56472 135.44405 33786 ft 446 kts 212°
2026-05-03 23:04 32.50917 135.41031 33792 ft 446 kts 212°
2026-05-03 23:04 32.45400 135.37683 33794 ft 446 kts 212°
2026-05-03 23:05 32.39849 135.34322 33797 ft 446 kts 212°
2026-05-03 23:05 32.34270 135.30945 33811 ft 449 kts 212°
2026-05-03 23:06 32.28744 135.27608 33811 ft 449 kts 212°
2026-05-03 23:06 32.23175 135.24248 33801 ft 449 kts 211°
2026-05-03 23:07 32.17582 135.20879 33798 ft 448 kts 211°
2026-05-03 23:07 32.12085 135.17471 33794 ft 444 kts 216°
2026-05-03 23:08 32.07346 135.12851 33795 ft 438 kts 229°
2026-05-03 23:08 32.03592 135.07245 33798 ft 438 kts 233°
2026-05-03 23:09 31.99886 135.01524 33797 ft 437 kts 233°
2026-05-03 23:09 31.96181 134.95836 33807 ft 440 kts 233°
2026-05-03 23:10 31.92436 134.90105 33816 ft 440 kts 233°
2026-05-03 23:10 31.88700 134.84402 33831 ft 439 kts 233°
2026-05-03 23:11 31.84980 134.78735 33839 ft 439 kts 233°
2026-05-03 23:11 31.81223 134.73021 33839 ft 439 kts 233°
2026-05-03 23:12 31.77480 134.67340 33837 ft 438 kts 233°
2026-05-03 23:12 31.73728 134.61652 33843 ft 440 kts 233°
2026-05-03 23:13 31.69984 134.55986 33841 ft 440 kts 233°
2026-05-03 23:13 31.66219 134.50296 33840 ft 439 kts 233°
2026-05-03 23:14 31.62474 134.44644 33843 ft 440 kts 233°
2026-05-03 23:14 31.58723 134.38994 33846 ft 439 kts 233°
2026-05-03 23:15 31.54942 134.33304 33868 ft 440 kts 233°
2026-05-03 23:15 31.51184 134.27658 33865 ft 440 kts 233°
2026-05-03 23:16 31.47404 134.21988 33862 ft 438 kts 233°
2026-05-03 23:16 31.43645 134.16357 33862 ft 440 kts 233°
2026-05-03 23:17 31.39849 134.10678 33872 ft 440 kts 233°
2026-05-03 23:17 31.36088 134.05061 33862 ft 439 kts 233°
2026-05-03 23:18 31.32319 133.99440 33867 ft 439 kts 233°
2026-05-03 23:18 31.28534 133.93803 33866 ft 439 kts 233°
2026-05-03 23:19 31.24767 133.88202 33873 ft 438 kts 233°
2026-05-03 23:19 31.20997 133.82603 33871 ft 439 kts 232°
2026-05-03 23:20 31.17198 133.76970 33875 ft 441 kts 232°
2026-05-03 23:20 31.13414 133.71367 33874 ft 439 kts 233°
2026-05-03 23:21 31.09606 133.65736 33885 ft 442 kts 233°
2026-05-03 23:21 31.05811 133.60133 33878 ft 438 kts 233°
2026-05-03 23:22 31.00112 133.51732 33887 ft 441 kts 233°
2026-05-03 23:22 30.96288 133.46101 33884 ft 440 kts 233°
2026-05-03 23:23 30.92501 133.40535 33885 ft 440 kts 233°
2026-05-03 23:23 30.88685 133.34933 33902 ft 439 kts 233°
2026-05-03 23:24 30.84878 133.29352 33921 ft 442 kts 233°
2026-05-03 23:24 30.81052 133.23752 33922 ft 440 kts 233°
2026-05-03 23:25 30.77245 133.18185 33933 ft 439 kts 233°
2026-05-03 23:25 30.73404 133.12579 33933 ft 440 kts 233°
2026-05-03 23:26 30.69585 133.07014 33936 ft 442 kts 233°
2026-05-03 23:26 30.65754 133.01437 33939 ft 441 kts 233°
2026-05-03 23:27 30.61920 132.95863 33941 ft 443 kts 233°
2026-05-03 23:27 30.58059 132.90259 33938 ft 441 kts 233°
2026-05-03 23:28 30.54201 132.84670 33932 ft 443 kts 233°
2026-05-03 23:28 30.50357 132.79105 33927 ft 442 kts 233°
2026-05-03 23:29 30.46471 132.73488 33934 ft 444 kts 233°
2026-05-03 23:29 30.42603 132.67906 33930 ft 445 kts 233°
2026-05-03 23:30 30.38728 132.62329 33924 ft 444 kts 232°
2026-05-03 23:30 30.34492 132.57130 33933 ft 446 kts 229°
2026-05-03 23:31 30.30140 132.51933 33937 ft 446 kts 229°
2026-05-03 23:31 30.25834 132.46799 33930 ft 444 kts 229°
2026-05-03 23:32 30.21489 132.41623 33940 ft 446 kts 229°
2026-05-03 23:32 30.17158 132.36472 33940 ft 446 kts 229°
2026-05-03 23:33 30.12820 132.31319 33960 ft 449 kts 228°
2026-05-03 23:33 30.08466 132.26155 33962 ft 448 kts 228°
2026-05-03 23:34 30.04080 132.20958 33969 ft 449 kts 228°
2026-05-03 23:34 29.99731 132.15814 33966 ft 448 kts 228°
2026-05-03 23:35 29.95352 132.10640 33966 ft 451 kts 228°
2026-05-03 23:35 29.90952 132.05449 33966 ft 451 kts 228°
2026-05-03 23:36 29.86574 132.00290 33980 ft 452 kts 228°
2026-05-03 23:36 29.82158 131.95094 33978 ft 452 kts 228°
2026-05-03 23:37 29.77774 131.89943 33977 ft 451 kts 228°
2026-05-03 23:37 29.73349 131.84749 33977 ft 453 kts 228°
2026-05-03 23:38 29.68952 131.79596 33982 ft 452 kts 228°
2026-05-03 23:38 29.64548 131.74442 33975 ft 453 kts 228°
2026-05-03 23:39 29.60109 131.69252 33978 ft 453 kts 228°
2026-05-03 23:39 29.55702 131.64108 33975 ft 453 kts 228°
2026-05-03 23:40 29.51260 131.58929 33978 ft 453 kts 228°
2026-05-03 23:40 29.46849 131.53795 33970 ft 452 kts 229°
2026-05-03 23:41 29.42410 131.48633 33972 ft 452 kts 228°
2026-05-03 23:41 29.37970 131.43478 33975 ft 453 kts 228°
2026-05-03 23:42 29.33548 131.38350 33980 ft 454 kts 228°
2026-05-03 23:42 29.29094 131.33192 33986 ft 454 kts 228°
2026-05-03 23:43 29.24631 131.28030 33988 ft 454 kts 228°
2026-05-03 23:43 29.20185 131.22894 33994 ft 455 kts 228°
2026-05-03 23:44 29.15708 131.17731 33990 ft 456 kts 228°
2026-05-03 23:44 29.11263 131.12608 33986 ft 455 kts 228°
2026-05-03 23:45 29.06777 131.07448 33987 ft 455 kts 228°
2026-05-03 23:45 29.02326 131.02335 33986 ft 454 kts 228°
2026-05-03 23:46 28.97846 130.97192 33990 ft 455 kts 228°
2026-05-03 23:46 28.93388 130.92084 34000 ft 456 kts 228°
2026-05-03 23:47 28.88874 130.86917 34021 ft 455 kts 228°
2026-05-03 23:47 28.84428 130.81836 34019 ft 455 kts 228°
2026-05-03 23:48 28.79934 130.76704 34022 ft 455 kts 228°
2026-05-03 23:48 28.75448 130.71591 34019 ft 456 kts 229°
2026-05-03 23:49 28.70930 130.66446 34024 ft 459 kts 229°
2026-05-03 23:49 28.66430 130.61328 34016 ft 457 kts 228°
2026-05-03 23:50 28.61904 130.56187 34019 ft 457 kts 229°
2026-05-03 23:50 28.57402 130.51082 34025 ft 459 kts 229°
2026-05-03 23:51 28.52857 130.45934 34022 ft 458 kts 229°
2026-05-03 23:51 28.48342 130.40825 34024 ft 458 kts 229°
2026-05-03 23:52 28.43814 130.35709 34024 ft 458 kts 228°
2026-05-03 23:52 28.39269 130.30579 34035 ft 458 kts 228°
2026-05-03 23:53 28.34722 130.25455 34035 ft 459 kts 228°
2026-05-03 23:53 28.30189 130.20352 34033 ft 460 kts 228°
2026-05-03 23:54 28.25619 130.15214 34033 ft 460 kts 228°
2026-05-03 23:54 28.21060 130.10097 34034 ft 461 kts 228°
2026-05-03 23:55 28.16513 130.04999 34035 ft 459 kts 228°
2026-05-03 23:55 28.11957 129.99896 34026 ft 460 kts 228°
2026-05-03 23:56 28.07377 129.94774 34029 ft 460 kts 228°
2026-05-03 23:56 28.02819 129.89682 34034 ft 459 kts 228°
2026-05-03 23:57 27.98291 129.84631 34031 ft 458 kts 228°
2026-05-03 23:57 27.93707 129.79523 34030 ft 460 kts 228°
2026-05-03 23:58 27.89140 129.74440 34040 ft 464 kts 228°
2026-05-03 23:58 27.84555 129.69344 34034 ft 463 kts 228°
2026-05-03 23:59 27.79949 129.64232 34033 ft 462 kts 228°
2026-05-03 23:59 27.75358 129.59142 34037 ft 462 kts 228°
2026-05-04 00:00 27.70782 129.54076 34038 ft 459 kts 228°
2026-05-04 00:00 27.66164 129.48967 34039 ft 463 kts 228°
2026-05-04 00:01 27.61547 129.43867 34040 ft 463 kts 228°
2026-05-04 00:01 27.56934 129.38779 34036 ft 463 kts 228°
2026-05-04 00:02 27.52302 129.33675 34054 ft 465 kts 227°
2026-05-04 00:02 27.47629 129.28532 34070 ft 466 kts 227°
2026-05-04 00:03 27.43009 129.23456 34073 ft 461 kts 228°
2026-05-04 00:03 27.38403 129.18399 34073 ft 464 kts 227°
2026-05-04 00:04 27.36105 129.15883 34072 ft 449 kts 228°
2026-05-04 00:04 27.33918 129.13490 34072 ft 434 kts 228°
2026-05-04 00:04 27.31777 129.11148 33988 ft 423 kts 228°
2026-05-04 00:04 27.29655 129.08827 33277 ft 422 kts 227°
2026-05-04 00:05 27.27550 129.06523 32475 ft 422 kts 227°
2026-05-04 00:05 27.25438 129.04211 31770 ft 435 kts 227°
2026-05-04 00:05 27.23228 129.01790 30982 ft 451 kts 227°
2026-05-04 00:05 27.20960 128.99313 30434 ft 447 kts 227°
2026-05-04 00:06 27.18754 128.96907 30007 ft 439 kts 227°
2026-05-04 00:06 27.16588 128.94545 29540 ft 434 kts 227°
2026-05-04 00:06 27.14409 128.92169 29039 ft 433 kts 227°
2026-05-04 00:06 27.12263 128.89830 28556 ft 432 kts 227°
2026-05-04 00:07 27.10099 128.87474 28054 ft 430 kts 226°
2026-05-04 00:07 27.07972 128.85159 27546 ft 427 kts 226°
2026-05-04 00:07 27.05855 128.82857 27045 ft 423 kts 226°
2026-05-04 00:07 27.03760 128.80580 26538 ft 419 kts 226°
2026-05-04 00:08 27.01672 128.78310 26024 ft 415 kts 226°
2026-05-04 00:08 26.99618 128.76080 25526 ft 411 kts 226°
2026-05-04 00:08 26.97549 128.73834 25015 ft 409 kts 226°
2026-05-04 00:08 26.95520 128.71632 24508 ft 407 kts 226°
2026-05-04 00:09 26.93475 128.69417 23997 ft 403 kts 226°
2026-05-04 00:09 26.91474 128.67247 23499 ft 399 kts 226°
2026-05-04 00:09 26.89485 128.65094 23006 ft 395 kts 226°
2026-05-04 00:09 26.87530 128.62978 22514 ft 391 kts 226°
2026-05-04 00:10 26.85562 128.60847 22020 ft 389 kts 226°
2026-05-04 00:10 26.83631 128.58760 21520 ft 386 kts 226°
2026-05-04 00:10 26.81710 128.56683 21024 ft 382 kts 227°
2026-05-04 00:10 26.79810 128.54631 20522 ft 379 kts 227°
2026-05-04 00:11 26.77924 128.52594 20017 ft 375 kts 227°
2026-05-04 00:11 26.76042 128.50563 19521 ft 371 kts 227°
2026-05-04 00:11 26.74198 128.48575 19024 ft 367 kts 227°
2026-05-04 00:11 26.72358 128.46591 18528 ft 363 kts 227°
2026-05-04 00:12 26.70561 128.44653 18039 ft 358 kts 227°
2026-05-04 00:12 26.68783 128.42740 17567 ft 354 kts 226°
2026-05-04 00:12 26.67004 128.40825 17071 ft 350 kts 227°
2026-05-04 00:12 26.65270 128.38957 16601 ft 346 kts 227°
2026-05-04 00:13 26.63532 128.37087 16126 ft 342 kts 226°
2026-05-04 00:13 26.61834 128.35261 15637 ft 339 kts 227°
2026-05-04 00:13 26.60132 128.33432 15192 ft 334 kts 226°
2026-05-04 00:13 26.58466 128.31641 14737 ft 331 kts 226°
2026-05-04 00:14 26.56776 128.29825 14269 ft 341 kts 226°
2026-05-04 00:14 26.55063 128.27985 13771 ft 343 kts 225°
2026-05-04 00:14 26.53330 128.26123 13263 ft 341 kts 225°
2026-05-04 00:14 26.51637 128.24307 12831 ft 336 kts 225°
2026-05-04 00:15 26.49938 128.22484 12288 ft 338 kts 225°
2026-05-04 00:15 26.48231 128.20654 11748 ft 336 kts 225°
2026-05-04 00:15 26.46556 128.18860 11255 ft 334 kts 225°
2026-05-04 00:15 26.44889 128.17075 10878 ft 327 kts 225°
2026-05-04 00:16 26.43298 128.15372 10708 ft 306 kts 225°
2026-05-04 00:16 26.41802 128.13773 10732 ft 285 kts 225°
2026-05-04 00:16 26.40401 128.12276 10606 ft 275 kts 225°
2026-05-04 00:16 26.39034 128.10814 10476 ft 265 kts 225°
2026-05-04 00:17 26.37737 128.09428 10365 ft 255 kts 225°
2026-05-04 00:17 26.36468 128.08073 10252 ft 245 kts 225°
2026-05-04 00:17 26.35263 128.06786 10130 ft 237 kts 225°
2026-05-04 00:17 26.34030 128.05466 9952 ft 254 kts 225°
2026-05-04 00:18 26.32734 128.04082 9611 ft 256 kts 225°
2026-05-04 00:18 26.31454 128.02714 9278 ft 255 kts 225°
2026-05-04 00:18 26.30175 128.01349 8948 ft 254 kts 224°
2026-05-04 00:18 26.28886 127.99974 8621 ft 252 kts 224°
2026-05-04 00:19 26.27627 127.98631 8330 ft 250 kts 224°
2026-05-04 00:19 26.26379 127.97300 8035 ft 248 kts 224°
2026-05-04 00:19 26.25120 127.95958 7730 ft 247 kts 224°
2026-05-04 00:19 26.23885 127.94642 7432 ft 245 kts 224°
2026-05-04 00:20 26.22655 127.93332 7134 ft 244 kts 224°
2026-05-04 00:20 26.21420 127.92017 6839 ft 243 kts 224°
2026-05-04 00:20 26.20204 127.90723 6548 ft 241 kts 224°
2026-05-04 00:20 26.18991 127.89431 6257 ft 240 kts 224°
2026-05-04 00:21 26.17789 127.88152 5970 ft 239 kts 224°
2026-05-04 00:21 26.16574 127.86859 5681 ft 240 kts 224°
2026-05-04 00:21 26.15327 127.85533 5393 ft 253 kts 225°
2026-05-04 00:21 26.14052 127.84177 5305 ft 247 kts 225°
2026-05-04 00:22 26.12831 127.82880 5299 ft 240 kts 225°
2026-05-04 00:22 26.11631 127.81606 5293 ft 232 kts 225°
2026-05-04 00:22 26.10493 127.80397 5292 ft 223 kts 225°
2026-05-04 00:22 26.09368 127.79202 5166 ft 221 kts 225°
2026-05-04 00:23 26.08248 127.78012 4926 ft 225 kts 225°
2026-05-04 00:23 26.07105 127.76799 4692 ft 227 kts 225°
2026-05-04 00:23 26.05974 127.75581 4455 ft 223 kts 231°
2026-05-04 00:23 26.05226 127.74141 4397 ft 207 kts 257°
2026-05-04 00:24 26.05022 127.72555 4018 ft 211 kts 270°
2026-05-04 00:24 26.04959 127.70893 3530 ft 217 kts 273°
2026-05-04 00:24 26.04899 127.69208 3044 ft 222 kts 274°
2026-05-04 00:24 26.04836 127.67499 2723 ft 215 kts 274°
2026-05-04 00:25 26.04977 127.65951 2562 ft 188 kts 300°
2026-05-04 00:25 26.05682 127.64873 2487 ft 163 kts 320°
2026-05-04 00:25 26.06598 127.64205 2318 ft 152 kts 345°
2026-05-04 00:25 26.07587 127.63905 1983 ft 147 kts 353°
2026-05-04 00:26 26.08575 127.63772 1722 ft 137 kts
2026-05-04 00:26 26.09534 127.63747 1573 ft 133 kts
2026-05-04 00:26 26.10432 127.63702 1421 ft 125 kts 360°
2026-05-04 00:26 26.11326 127.63662 1267 ft 130 kts 359°
2026-05-04 00:27 26.12250 127.63618 1104 ft 134 kts 359°
2026-05-04 00:27 26.13178 127.63574 929 ft 130 kts 359°
2026-05-04 00:27 26.14080 127.63535 743 ft 130 kts 359°
2026-05-04 00:27 26.14999 127.63491 585 ft 133 kts 359°
2026-05-04 00:28 26.15946 127.63444 409 ft 135 kts 360°
2026-05-04 00:28 26.16883 127.63400 246 ft 135 kts 359°
2026-05-04 00:28 26.17825 127.63354 61 ft 134 kts 359°
2026-05-04 00:28 26.18702 127.63317 18 ft 106 kts 359°
2026-05-04 00:29 26.19294 127.63291 17 ft 62 kts 358°
2026-05-04 00:29 26.19534 127.63280 17 ft 17 kts 359°
2026-05-04 00:29 26.19648 127.63299 17 ft 15 kts 17°
2026-05-04 00:29 26.19750 127.63345 17 ft 19 kts 26°
2026-05-04 00:30 26.19891 127.63425 17 ft 21 kts 26°
2026-05-04 00:30 26.20024 127.63444 17 ft 18 kts 359°
2026-05-04 00:30 26.20186 127.63449 17 ft 23 kts 36°
2026-05-04 00:30 26.20221 127.63613 18 ft 21 kts 88°
2026-05-04 00:31 26.20227 127.63774 18 ft 19 kts 88°
2026-05-04 00:31 26.20233 127.63934 18 ft 23 kts 87°
2026-05-04 00:31 26.20239 127.64114 18 ft 22 kts 88°
2026-05-04 00:31 26.20247 127.64278 18 ft 19 kts 72°
2026-05-04 00:32 26.20328 127.64363 18 ft 14 kts 69°
2026-05-04 00:32 26.20338 127.64471 18 ft 13 kts 87°
2026-05-04 00:32 26.20343 127.64574 18 ft 17 kts 88°
2026-05-04 00:32 26.20351 127.64750 18 ft 16 kts 74°
2026-05-04 00:33 26.20412 127.64830 18 ft 12 kts 49°
2026-05-04 00:33 26.20435 127.64858 18 ft 0 kts 48°